Weather in Nikolsk

Russia / Vologda Oblast     59°31′49″N   45°27′30″E
temp.,
°C
wind,
m/s
gust,
m/s
humid.,
%
clouds,
%
prec.,
mm/h
press.,
hPa
HPBL,
m
25 february, thu
thu2500:00−19s4994100 0.0 1028322
03:00−19s41192100 0.0 1025347
06:00−18sse51196100 0.4 1021448
09:00−17sse51296100 1.6 1018526
12:00−16sse51094100 1.0 1016603
15:00−15sse5994100 1.7 1015648
18:00−15sse4895100 0.4 1014591
21:00−16sse3895100 0.7 1015487
26 february, fri
fri2600:00−16sse389596 0.3 1013351
03:00−16sse399592 0.4 1014350
06:00−17sse499597 0.1 1012342
09:00−17sse4109598 0.1 1010350
12:00−13se51093100 0.2 1006415
15:00−13se61394100 0.9 1002472
18:00−13se61394100 2.7 998606
21:00−13ese51294100 6.3 996584
27 february, sat
sat2700:00−13e41095100 2.0 995536
03:00−14ene4994100 2.7 997519
06:00−15ne4895100 0.4 998491
09:00−15ne4793100 0.8 1001519
12:00−14nne4791100 0.1 1002590
15:00−13nne4790100 0.1 1004614
18:00−16nne2397100 0.1 100639
21:00−19nne229888 0.1 100822
28 february, sun
sun2800:00−20n239931 0.0 100934
03:00−21n239924 0.0 101153
06:00−22n239922 0.0 101242
09:00−19n249722 0.0 1013183
12:00−14nnw349472 0.0 1014332
15:00−12nnw359285 0.1 1015488
18:00−15nnw2397100 0.0 101741
21:00−17nnw129887 0.1 101920
1 march, mon
mon100:00−19wnw1210068 0.0 102020
03:00−18w229974 0.0 102120
06:00−16wsw229895 0.1 102128
09:00−11sw249797 0.1 1020156
12:00−6sw3695100 0.1 1019352
15:00−4wsw489499 0.5 1017529
18:00−3wsw41195100 0.3 1015577
21:00−2w51295100 1.3 1012708